RS9S

Last updated on Sun Aug 28 2022 00:02:06 GMT+0000 (Coordinated Universal Time)

1 53312U 98067TX 22239.46108803 .00028711 00000+0 46475-3 0 9999 2 53312 51.6428 343.1546 0001902 178.6767 181.4228 15.52571942 5723
UTC large
Height (km)
Speed (km/s)
/
Latitude / Longitude
Inclination (degrees)
Orbital Period (minutes)
Azimuth
Elevation
Range (km)
Doppler Factor

Next 0 passes for location: London (51.5072 / 0.1276)

Sorry there are no passes over London.